Year,Month,Day,Hour,Minute,Value (Times are PST for temperature in C)
2014,07,16,07,37,17.30
2014,07,16,07,38,17.30
2014,07,16,07,39,17.30
2014,07,16,07,40,17.40
2014,07,16,07,41,17.50
2014,07,16,07,42,17.50
2014,07,16,07,43,17.60
2014,07,16,07,44,17.60
2014,07,16,07,45,17.70
2014,07,16,07,46,17.70
2014,07,16,07,47,17.70
2014,07,16,07,48,17.70
2014,07,16,07,49,17.70
2014,07,16,07,50,17.80
2014,07,16,07,51,17.80
2014,07,16,07,52,17.90
2014,07,16,07,53,17.90
2014,07,16,07,54,17.90
2014,07,16,07,55,17.90
2014,07,16,07,56,18.10
2014,07,16,07,57,18.20
2014,07,16,07,58,18.30
2014,07,16,07,59,18.40
2014,07,16,08,00,18.60
2014,07,16,08,01,18.70
2014,07,16,08,02,18.80
2014,07,16,08,03,18.90
2014,07,16,08,04,19.10
2014,07,16,08,05,19.10
2014,07,16,08,06,19.30
2014,07,16,08,07,19.40
2014,07,16,08,08,19.50
2014,07,16,08,09,19.60
2014,07,16,08,10,19.70
2014,07,16,08,11,19.80
2014,07,16,08,12,19.80
2014,07,16,08,13,19.90
2014,07,16,08,14,19.90
2014,07,16,08,15,20.10
2014,07,16,08,16,20.10
2014,07,16,08,17,20.20
2014,07,16,08,18,20.20
2014,07,16,08,19,20.10
2014,07,16,08,20,20.10
2014,07,16,08,21,19.90
2014,07,16,08,22,19.90
2014,07,16,08,23,19.80
2014,07,16,08,24,19.80
2014,07,16,08,25,19.80
2014,07,16,08,26,19.70
2014,07,16,08,27,19.60
2014,07,16,08,28,19.50
2014,07,16,08,29,19.50
2014,07,16,08,30,19.40
2014,07,16,08,31,19.40
2014,07,16,08,32,19.40
2014,07,16,08,33,19.40
2014,07,16,08,34,19.40
2014,07,16,08,35,19.50
2014,07,16,08,36,19.60
2014,07,16,08,37,19.60
2014,07,16,08,38,19.70
2014,07,16,08,39,19.70
2014,07,16,08,40,19.80
2014,07,16,08,42,19.90
2014,07,16,08,43,19.90
2014,07,16,08,44,19.90
2014,07,16,08,45,20.10
2014,07,16,08,46,20.10
2014,07,16,08,47,20.20
2014,07,16,08,48,20.20
2014,07,16,08,49,20.30
2014,07,16,08,50,20.40
2014,07,16,08,51,20.50
2014,07,16,08,52,20.60
2014,07,16,08,53,20.60
2014,07,16,08,54,20.60
2014,07,16,08,55,20.60
2014,07,16,08,56,20.60
2014,07,16,08,57,20.60
2014,07,16,08,58,20.60
2014,07,16,08,59,20.70
2014,07,16,09,00,20.70
2014,07,16,09,01,20.70
2014,07,16,09,02,20.70
2014,07,16,09,03,20.70
2014,07,16,09,04,20.80
2014,07,16,09,05,20.80
2014,07,16,09,06,20.80
2014,07,16,09,07,20.90
2014,07,16,09,08,20.90
2014,07,16,09,09,21.00
2014,07,16,09,10,21.00
2014,07,16,09,11,21.10
2014,07,16,09,12,21.10
2014,07,16,09,13,21.10
2014,07,16,09,14,21.10
2014,07,16,09,15,21.10
2014,07,16,09,16,21.00
2014,07,16,09,17,21.00
2014,07,16,09,18,21.00
2014,07,16,09,19,20.90
2014,07,16,09,20,20.90
2014,07,16,09,21,20.90
2014,07,16,09,22,20.90
2014,07,16,09,23,20.90
2014,07,16,09,24,20.90
2014,07,16,09,25,20.90
2014,07,16,09,26,20.90
2014,07,16,09,27,20.90
2014,07,16,09,28,20.90
2014,07,16,09,29,20.90
2014,07,16,09,30,20.90
2014,07,16,09,31,20.90
2014,07,16,09,32,20.90
2014,07,16,09,33,20.90
2014,07,16,09,34,20.80
2014,07,16,09,35,20.80
2014,07,16,09,36,20.90
2014,07,16,09,37,21.00
2014,07,16,09,38,21.10
2014,07,16,09,39,21.20
2014,07,16,09,40,21.30
2014,07,16,09,41,21.40
2014,07,16,09,42,21.60
2014,07,16,09,43,21.60
2014,07,16,09,44,21.70
2014,07,16,09,45,21.70
2014,07,16,09,46,21.80
2014,07,16,09,47,21.80
2014,07,16,09,48,21.80
2014,07,16,09,49,21.80
2014,07,16,09,50,21.80
2014,07,16,09,51,21.80
2014,07,16,09,52,21.90
2014,07,16,09,53,21.90
2014,07,16,09,54,21.80
2014,07,16,09,55,21.80
2014,07,16,09,56,21.80
2014,07,16,09,57,21.80
2014,07,16,09,58,21.80
2014,07,16,09,59,21.80
2014,07,16,10,00,21.90
2014,07,16,10,01,21.90
2014,07,16,10,02,21.90
2014,07,16,10,03,21.90
2014,07,16,10,04,22.00
2014,07,16,10,05,22.00
2014,07,16,10,06,22.10
2014,07,16,10,07,22.10
2014,07,16,10,08,22.20
2014,07,16,10,09,22.30
2014,07,16,10,10,22.40
2014,07,16,10,11,22.50
2014,07,16,10,12,22.70
2014,07,16,10,13,22.80
2014,07,16,10,14,22.90
2014,07,16,10,15,23.10
2014,07,16,10,16,23.10
2014,07,16,10,17,23.20
2014,07,16,10,18,23.30
2014,07,16,10,19,23.30
2014,07,16,10,20,23.40
2014,07,16,10,21,23.60
2014,07,16,10,22,23.70
2014,07,16,10,23,23.70
2014,07,16,10,24,23.70
2014,07,16,10,25,23.80
2014,07,16,10,26,23.90
2014,07,16,10,27,24.10
2014,07,16,10,28,24.20
2014,07,16,10,29,24.20
2014,07,16,10,30,24.30
2014,07,16,10,31,24.30
2014,07,16,10,32,24.30
2014,07,16,10,33,24.40
2014,07,16,10,34,24.30
2014,07,16,10,35,24.30
2014,07,16,10,36,24.20
2014,07,16,10,37,24.10
2014,07,16,10,38,24.10
2014,07,16,10,39,23.90
2014,07,16,10,40,23.80
2014,07,16,10,41,23.80
2014,07,16,10,42,23.70
2014,07,16,10,43,23.80
2014,07,16,10,44,23.80
2014,07,16,10,45,23.80
2014,07,16,10,46,23.80
2014,07,16,10,47,23.90
2014,07,16,10,48,23.90
2014,07,16,10,49,23.90
2014,07,16,10,50,23.90
2014,07,16,10,51,23.90
2014,07,16,10,52,23.90
2014,07,16,10,53,24.10
2014,07,16,10,54,24.10
2014,07,16,10,55,24.10
2014,07,16,10,56,24.10
2014,07,16,10,57,23.90
2014,07,16,10,58,23.90
2014,07,16,10,59,23.90
2014,07,16,11,00,23.90
2014,07,16,11,01,23.90
2014,07,16,11,02,23.90
2014,07,16,11,03,23.90
2014,07,16,11,04,24.10
2014,07,16,11,05,24.10
2014,07,16,11,06,24.10
2014,07,16,11,07,24.10
2014,07,16,11,08,24.10
2014,07,16,11,09,23.90
2014,07,16,11,10,24.10
2014,07,16,11,11,24.10
2014,07,16,11,12,24.10
2014,07,16,11,13,24.10
2014,07,16,11,14,24.10
2014,07,16,11,15,24.10
2014,07,16,11,16,24.10
2014,07,16,11,17,24.10
2014,07,16,11,18,24.10
2014,07,16,11,19,23.90
2014,07,16,11,20,23.90
2014,07,16,11,21,23.90
2014,07,16,11,22,23.90
2014,07,16,11,23,23.90
2014,07,16,11,24,23.90
2014,07,16,11,25,23.90
2014,07,16,11,26,23.90
2014,07,16,11,27,24.10
2014,07,16,11,28,24.10
2014,07,16,11,29,24.10
2014,07,16,11,30,24.10
2014,07,16,11,31,24.20
2014,07,16,11,32,24.30
2014,07,16,11,33,24.40
2014,07,16,11,34,24.50
2014,07,16,11,35,24.50
2014,07,16,11,36,24.60
2014,07,16,11,37,24.60
2014,07,16,11,38,24.70
2014,07,16,11,39,24.60
2014,07,16,11,40,24.60
2014,07,16,11,41,24.40
2014,07,16,11,42,24.30
2014,07,16,11,43,24.30
2014,07,16,11,44,24.30
2014,07,16,11,45,24.30
2014,07,16,11,46,24.40
2014,07,16,11,47,24.40
2014,07,16,11,48,24.50
2014,07,16,11,49,24.50
2014,07,16,11,50,24.60
2014,07,16,11,51,24.70
2014,07,16,11,52,24.70
2014,07,16,11,53,24.80
2014,07,16,11,54,24.90
2014,07,16,11,55,24.90
2014,07,16,11,56,25.00
2014,07,16,11,57,25.00
2014,07,16,11,58,25.10
2014,07,16,11,59,25.10
2014,07,16,12,00,25.00
2014,07,16,12,01,25.00
2014,07,16,12,02,25.10
2014,07,16,12,03,25.10
2014,07,16,12,04,25.10
2014,07,16,12,05,25.20
2014,07,16,12,06,25.20
2014,07,16,12,07,25.30
2014,07,16,12,08,25.40
2014,07,16,12,09,25.40
2014,07,16,12,10,25.50
2014,07,16,12,11,25.50
2014,07,16,12,12,25.60
2014,07,16,12,13,25.60
2014,07,16,12,14,25.70
2014,07,16,12,15,25.70
2014,07,16,12,16,25.60
2014,07,16,12,17,25.60
2014,07,16,12,18,25.60
2014,07,16,12,19,25.70
2014,07,16,12,20,25.70
2014,07,16,12,21,25.80
2014,07,16,12,22,25.80
2014,07,16,12,23,25.80
2014,07,16,12,24,25.90
2014,07,16,12,25,25.90
2014,07,16,12,26,26.00
2014,07,16,12,27,26.00
2014,07,16,12,28,26.10
2014,07,16,12,29,26.30
2014,07,16,12,30,26.30
2014,07,16,12,31,26.60
2014,07,16,12,32,26.60
2014,07,16,12,33,26.70
2014,07,16,12,34,26.90
2014,07,16,12,35,26.90
2014,07,16,12,36,26.90
2014,07,16,12,37,26.90
2014,07,16,12,38,26.90
2014,07,16,12,39,26.90
2014,07,16,12,40,26.90
2014,07,16,12,41,27.10
2014,07,16,12,42,27.20
2014,07,16,12,43,27.20
2014,07,16,12,44,27.10
2014,07,16,12,45,27.20
2014,07,16,12,46,27.30
2014,07,16,12,47,27.30
2014,07,16,12,48,27.40
2014,07,16,12,49,27.60
2014,07,16,12,50,27.70
2014,07,16,12,51,27.80
2014,07,16,12,52,27.90
2014,07,16,12,53,28.10
2014,07,16,12,54,28.20
2014,07,16,12,55,28.40
2014,07,16,12,56,28.60
2014,07,16,12,57,28.70
2014,07,16,12,58,28.80
2014,07,16,12,59,28.90
2014,07,16,13,00,28.90
2014,07,16,13,01,29.20
2014,07,16,13,02,29.30
2014,07,16,13,03,29.40
2014,07,16,13,04,29.50
2014,07,16,13,05,29.60
2014,07,16,13,06,29.60
2014,07,16,13,07,29.70
2014,07,16,13,08,29.80
2014,07,16,13,09,29.80
2014,07,16,13,10,29.80
2014,07,16,13,11,29.80
2014,07,16,13,12,29.80
2014,07,16,13,13,29.90
2014,07,16,13,14,29.90
2014,07,16,13,15,29.90
2014,07,16,13,16,30.10
2014,07,16,13,17,30.10
2014,07,16,13,19,30.20
2014,07,16,13,20,30.20
2014,07,16,13,21,30.20
2014,07,16,13,22,30.10
2014,07,16,13,23,29.90
2014,07,16,13,24,29.90
2014,07,16,13,25,29.90
2014,07,16,13,26,29.90
2014,07,16,13,27,30.10
2014,07,16,13,28,30.10
2014,07,16,13,29,30.10
2014,07,16,13,30,30.20
2014,07,16,13,31,30.10
2014,07,16,13,32,30.20
2014,07,16,13,33,30.20
2014,07,16,13,34,30.20
2014,07,16,13,35,30.20
2014,07,16,13,36,30.20
2014,07,16,13,37,30.10
2014,07,16,13,38,30.10
2014,07,16,13,39,30.10
2014,07,16,13,40,30.20
2014,07,16,13,41,30.20
2014,07,16,13,42,30.20
2014,07,16,13,43,30.20
2014,07,16,13,44,30.20
2014,07,16,13,45,30.30
2014,07,16,13,46,30.30
2014,07,16,13,47,30.40
2014,07,16,13,48,30.60
2014,07,16,13,49,30.60
2014,07,16,13,50,30.70
2014,07,16,13,51,30.70
2014,07,16,13,52,30.70
2014,07,16,13,53,30.70
2014,07,16,13,54,30.70
2014,07,16,13,55,30.70
2014,07,16,13,56,30.60
2014,07,16,13,57,30.40
2014,07,16,13,58,30.40
2014,07,16,13,59,30.40
2014,07,16,14,00,30.40
2014,07,16,14,01,30.40
2014,07,16,14,02,30.60
2014,07,16,14,03,30.60
2014,07,16,14,04,30.60
2014,07,16,14,05,30.60
2014,07,16,14,06,30.60
2014,07,16,14,07,30.40
2014,07,16,14,08,30.40
2014,07,16,14,09,30.40
2014,07,16,14,10,30.40
2014,07,16,14,11,30.60
2014,07,16,14,12,30.60
2014,07,16,14,13,30.40
2014,07,16,14,14,30.40
2014,07,16,14,15,30.60
2014,07,16,14,16,30.60
2014,07,16,14,17,30.60
2014,07,16,14,18,30.70
2014,07,16,14,19,30.70
2014,07,16,14,20,30.80
2014,07,16,14,21,30.80
2014,07,16,14,22,30.80
2014,07,16,14,23,30.80
2014,07,16,14,24,30.80
2014,07,16,14,25,30.90
2014,07,16,14,26,30.90
2014,07,16,14,27,30.90
2014,07,16,14,28,31.00
2014,07,16,14,29,31.00
2014,07,16,14,30,31.00
2014,07,16,14,31,30.90
2014,07,16,14,32,30.90
2014,07,16,14,33,30.90
2014,07,16,14,34,30.90
2014,07,16,14,35,30.90
2014,07,16,14,36,30.90
2014,07,16,14,37,30.90
2014,07,16,14,38,30.90
2014,07,16,14,39,30.90
2014,07,16,14,40,30.90
2014,07,16,14,41,31.00
2014,07,16,14,42,30.90
2014,07,16,14,43,30.90
2014,07,16,14,44,30.90
2014,07,16,14,45,31.00
2014,07,16,14,46,31.00
2014,07,16,14,47,31.00
2014,07,16,14,48,31.00
2014,07,16,14,49,31.00
2014,07,16,14,50,30.90
2014,07,16,14,51,30.90
2014,07,16,14,52,30.90
2014,07,16,14,53,30.80
2014,07,16,14,54,30.80
2014,07,16,14,55,30.80
2014,07,16,14,56,30.80
2014,07,16,14,57,30.80
2014,07,16,14,58,30.70
2014,07,16,14,59,30.70
2014,07,16,15,00,30.80
2014,07,16,15,01,30.80
2014,07,16,15,02,30.70
2014,07,16,15,03,30.70
2014,07,16,15,04,30.70
2014,07,16,15,05,30.70
2014,07,16,15,06,30.80
2014,07,16,15,07,30.80
2014,07,16,15,08,30.80
2014,07,16,15,09,30.80
2014,07,16,15,10,30.80
2014,07,16,15,11,30.70
2014,07,16,15,12,30.70
2014,07,16,15,13,30.70
2014,07,16,15,14,30.60
2014,07,16,15,15,30.60
2014,07,16,15,16,30.60
2014,07,16,15,17,30.60
2014,07,16,15,18,30.60
2014,07,16,15,19,30.60
2014,07,16,15,20,30.60
2014,07,16,15,21,30.60
2014,07,16,15,22,30.60
2014,07,16,15,23,30.60
2014,07,16,15,24,30.60
2014,07,16,15,25,30.60
2014,07,16,15,26,30.70
2014,07,16,15,27,30.80
2014,07,16,15,28,30.80
2014,07,16,15,29,30.80
2014,07,16,15,30,30.80
2014,07,16,15,31,30.80
2014,07,16,15,32,30.80
2014,07,16,15,33,30.80
2014,07,16,15,34,30.70
2014,07,16,15,35,30.60
2014,07,16,15,36,30.60
2014,07,16,15,37,30.60
2014,07,16,15,38,30.60
2014,07,16,15,39,30.40
2014,07,16,15,40,30.40
2014,07,16,15,41,30.30
2014,07,16,15,42,30.30
2014,07,16,15,43,30.30
2014,07,16,15,44,30.30
2014,07,16,15,45,30.30
2014,07,16,15,46,30.30
2014,07,16,15,47,30.40
2014,07,16,15,48,30.40
2014,07,16,15,49,30.30
2014,07,16,15,50,30.30
2014,07,16,15,51,30.30
2014,07,16,15,52,30.30
2014,07,16,15,53,30.30
2014,07,16,15,54,30.20
2014,07,16,15,55,30.30
2014,07,16,15,56,30.30
2014,07,16,15,57,30.30
2014,07,16,15,58,30.30
2014,07,16,15,59,30.20
2014,07,16,16,00,30.20
2014,07,16,16,01,30.20
2014,07,16,16,02,30.20
2014,07,16,16,03,30.20
2014,07,16,16,04,30.20
2014,07,16,16,05,30.20
2014,07,16,16,06,30.30
2014,07,16,16,07,30.30
2014,07,16,16,08,30.30
2014,07,16,16,09,30.30
2014,07,16,16,10,30.40
2014,07,16,16,11,30.40
2014,07,16,16,12,30.30
2014,07,16,16,13,30.30
2014,07,16,16,14,30.30
2014,07,16,16,15,30.20
2014,07,16,16,16,30.20
2014,07,16,16,17,30.20
2014,07,16,16,18,30.20
2014,07,16,16,19,30.10
2014,07,16,16,20,30.10
2014,07,16,16,21,30.10
2014,07,16,16,22,30.20
2014,07,16,16,23,30.20
2014,07,16,16,24,30.20
2014,07,16,16,25,30.20
2014,07,16,16,26,30.20
2014,07,16,16,27,30.20
2014,07,16,16,28,30.20
2014,07,16,16,29,30.10
2014,07,16,16,30,30.10
2014,07,16,16,31,30.10
2014,07,16,16,32,30.10
2014,07,16,16,33,30.10
2014,07,16,16,34,30.10
2014,07,16,16,35,30.10
2014,07,16,16,36,30.10
2014,07,16,16,37,30.10
2014,07,16,16,38,30.20
2014,07,16,16,39,30.20
2014,07,16,16,40,30.20
2014,07,16,16,41,30.10
2014,07,16,16,42,30.10
2014,07,16,16,43,29.90
2014,07,16,16,44,29.90
2014,07,16,16,45,29.90
2014,07,16,16,46,29.90
2014,07,16,16,47,29.90
2014,07,16,16,48,30.10
2014,07,16,16,49,29.90
2014,07,16,16,50,29.90
2014,07,16,16,51,29.90
2014,07,16,16,52,29.90
2014,07,16,16,53,29.90
2014,07,16,16,54,29.90
2014,07,16,16,56,29.90
2014,07,16,16,57,29.90
2014,07,16,16,58,30.10
2014,07,16,16,59,30.10
2014,07,16,17,01,29.90
2014,07,16,17,02,29.90
2014,07,16,17,03,29.90
2014,07,16,17,04,29.90
2014,07,16,17,05,29.90
2014,07,16,17,06,29.90
2014,07,16,17,07,29.90
2014,07,16,17,08,29.80
2014,07,16,17,09,29.80
2014,07,16,17,11,29.80
2014,07,16,17,12,29.70
2014,07,16,17,13,29.70
2014,07,16,17,14,29.60
2014,07,16,17,15,29.60
2014,07,16,17,16,29.60
2014,07,16,17,17,29.60
2014,07,16,17,18,29.60
2014,07,16,17,19,29.70
2014,07,16,17,20,29.70
2014,07,16,17,21,29.70
2014,07,16,17,22,29.60
2014,07,16,17,23,29.60
2014,07,16,17,24,29.60
2014,07,16,17,25,29.50
2014,07,16,17,26,29.50
2014,07,16,17,27,29.50
2014,07,16,17,28,29.50
2014,07,16,17,29,29.50
2014,07,16,17,30,29.50
2014,07,16,17,31,29.50
2014,07,16,17,32,29.40
2014,07,16,17,33,29.30
2014,07,16,17,34,29.30
2014,07,16,17,35,29.20
2014,07,16,17,36,29.20
2014,07,16,17,37,29.20
2014,07,16,17,38,29.20
2014,07,16,17,39,29.20
2014,07,16,17,40,29.20
2014,07,16,17,41,29.10
2014,07,16,17,42,29.10
2014,07,16,17,43,29.10
2014,07,16,17,44,29.20
2014,07,16,17,45,29.20
2014,07,16,17,46,29.20
2014,07,16,17,47,29.30
2014,07,16,17,48,29.30
2014,07,16,17,49,29.30
2014,07,16,17,50,29.30
2014,07,16,17,51,29.30
2014,07,16,17,52,29.30
2014,07,16,17,53,29.20
2014,07,16,17,54,29.20
2014,07,16,17,55,29.20
2014,07,16,17,56,29.10
2014,07,16,17,57,29.10
2014,07,16,17,58,29.10
2014,07,16,17,59,29.10
2014,07,16,18,00,29.10
2014,07,16,18,01,28.90
2014,07,16,18,02,28.90
2014,07,16,18,03,28.90
2014,07,16,18,04,28.90
2014,07,16,18,05,28.90
2014,07,16,18,06,28.90
2014,07,16,18,07,28.80
2014,07,16,18,08,28.80
2014,07,16,18,09,28.80
2014,07,16,18,11,28.90
2014,07,16,18,12,28.90
2014,07,16,18,13,28.90
2014,07,16,18,14,28.90
2014,07,16,18,15,28.90
2014,07,16,18,16,28.90
2014,07,16,18,17,28.90
2014,07,16,18,18,28.90
2014,07,16,18,19,28.90
2014,07,16,18,20,28.90
2014,07,16,18,21,28.90
2014,07,16,18,22,28.90
2014,07,16,18,23,28.90
2014,07,16,18,24,28.90
2014,07,16,18,25,28.90
2014,07,16,18,26,28.90
2014,07,16,18,27,28.80
2014,07,16,18,28,28.80
2014,07,16,18,29,28.70
2014,07,16,18,30,28.60
2014,07,16,18,31,28.40
2014,07,16,18,32,28.40
2014,07,16,18,33,28.40
2014,07,16,18,34,28.40
2014,07,16,18,35,28.40
2014,07,16,18,36,28.40
2014,07,16,18,37,28.40
2014,07,16,18,38,28.40
2014,07,16,18,39,28.40
2014,07,16,18,40,28.40
2014,07,16,18,41,28.40
2014,07,16,18,42,28.40
2014,07,16,18,43,28.40
2014,07,16,18,44,28.40
2014,07,16,18,45,28.40
2014,07,16,18,46,28.40
2014,07,16,18,47,28.40
2014,07,16,18,48,28.40
2014,07,16,18,49,28.40
2014,07,16,18,50,28.40
2014,07,16,18,51,28.30
2014,07,16,18,52,28.30
2014,07,16,18,53,28.30
2014,07,16,18,54,28.30
2014,07,16,18,55,28.30
2014,07,16,18,56,28.20
2014,07,16,18,57,28.10
2014,07,16,18,58,28.00
2014,07,16,18,59,28.00
2014,07,16,19,00,27.90
2014,07,16,19,01,27.80
2014,07,16,19,02,27.80
2014,07,16,19,03,27.80
2014,07,16,19,04,27.90
2014,07,16,19,05,27.90
2014,07,16,19,06,27.90
2014,07,16,19,07,27.80
2014,07,16,19,08,27.70
2014,07,16,19,09,27.40
2014,07,16,19,10,27.30
2014,07,16,19,11,27.30
2014,07,16,19,12,27.30
2014,07,16,19,13,27.10
2014,07,16,19,14,26.80
2014,07,16,19,15,26.60
2014,07,16,19,16,26.60
2014,07,16,19,17,26.30
2014,07,16,19,18,26.20
2014,07,16,19,19,26.10
2014,07,16,19,20,26.00
2014,07,16,19,21,26.00
2014,07,16,19,22,25.90
2014,07,16,19,23,25.70
2014,07,16,19,24,25.70
2014,07,16,19,25,25.60
2014,07,16,19,26,25.60
2014,07,16,19,27,25.50
2014,07,16,19,28,25.40
2014,07,16,19,29,25.40
2014,07,16,19,30,25.30
2014,07,16,19,31,25.20
2014,07,16,19,32,25.30
2014,07,16,19,33,25.30
2014,07,16,19,34,25.20
2014,07,16,19,35,25.20
2014,07,16,19,36,25.10
2014,07,16,19,37,25.20
2014,07,16,19,38,25.20
2014,07,16,19,39,25.20
2014,07,16,19,40,25.20
2014,07,16,19,41,25.00
2014,07,16,19,42,24.90
2014,07,16,19,43,24.80
2014,07,16,19,44,24.80
2014,07,16,19,45,24.80
2014,07,16,19,46,24.80
2014,07,16,19,47,24.80
2014,07,16,19,48,24.80
2014,07,16,19,49,24.70
2014,07,16,19,50,24.60
2014,07,16,19,51,24.50
2014,07,16,19,52,24.50
2014,07,16,19,53,24.40
2014,07,16,19,54,24.40
2014,07,16,19,55,24.40
2014,07,16,19,56,24.30
2014,07,16,19,57,24.30
2014,07,16,19,58,24.30
2014,07,16,19,59,24.30
2014,07,16,20,00,24.30
2014,07,16,20,01,24.30
2014,07,16,20,02,24.30
2014,07,16,20,03,24.30
2014,07,16,20,04,24.30
2014,07,16,20,05,24.30
2014,07,16,20,06,24.30
2014,07,16,20,07,24.30
2014,07,16,20,08,24.30
2014,07,16,20,09,24.30
2014,07,16,20,10,24.30
2014,07,16,20,11,24.30
2014,07,16,20,12,24.30
2014,07,16,20,13,24.30
